MMS 4

Last updated on Jan. 17, 2020, 4:31 a.m. UTC

1 40485U 15011D   20016.77783565 -.00001668  00000-0  00000+0 0  9997
2 40485  23.5666 120.3560 8804458  17.5127 224.9837  0.28549406 10754
UTC
Height (km)
Latitude
Longitude
Inclination
Orbital Period
UTC large
Height (km)
Speed (km/s)
/
Latitude / Longitude
Inclination (degrees)
Orbital Period (minutes)
Azimuth
Elevation
Range (km)
Doppler Factor
iOS Compass Heading
iOS Angle

Next 30 passes for location: Hong Kong

Rise time Rise Azimuth (degrees) Set time Set Azimuth (degrees) Duration Max altitude (degrees)

No matching passes for this satellites